This demonstration page uses our WeatherBlox Daily Observations layout. Learn more.

Left ArrowRight Arrow

Hourly Observations for December 4, 2018

Temp ( °F °C ) Dew Point ( °F °C ) Humidity (%) Winds ( mph kmh ) Pressure ( in mb ) Visibility ( mi km ) Precip ( " mm )
12:57 am 00:57 Cloudy 22 -5.6 18 -7.8 85 85 W 5 7 30.37 1028 10 16 0.00 0.03
1:57 am 01:57 Cloudy 22 -5.6 18 -7.8 85 85 WNW 5 7 30.36 1028 9 14 0.00 0.03
2:57 am 02:57 Cloudy 22 -5.6 19 -7.2 89 89 WNW 7 11 30.36 1028 10 16 0.00 0.00
3:57 am 03:57 Cloudy 23 -5 19 -7.2 85 85 WNW 7 11 30.35 1028 10 16 0.00 0.03
4:57 am 04:57 Cloudy 23 -5 19 -7.2 85 85 WNW 12 19 30.34 1028 10 16 0.00 0.00
5:57 am 05:57 Cloudy 23 -5 19 -7.2 85 85 WNW 12 19 30.34 1028 10 16 0.00 0.00
6:57 am 06:57 Cloudy 23 -5 19 -7.2 85 85 W 3 6 30.34 1027 10 16 0.00 0.00
7:57 am 07:57 Cloudy 24 -4.4 20 -6.7 84 84 Calm 30.33 1027 10 16 0.00 0.00
8:57 am 08:57 Cloudy 26 -3.3 22 -5.6 84 84 Calm 30.32 1027 10 16 0.00 0.00
9:57 am 09:57 Cloudy 27 -2.8 22 -5.6 81 81 W 7 11 30.33 1027 10 16 0.00 0.00
10:57 am 10:57 Cloudy 29 -1.7 23 -5 78 78 W 7 11 30.33 1027 10 16 0.00 0.00
11:57 am 11:57 Cloudy 30 -1.1 24 -4.4 79 79 WNW 12 19 30.31 1026 10 16 0.00 0.00
12:57 pm 12:57 Mostly Cloudy 33 0.6 24 -4.4 70 70 W 7 11 30.27 1025 10 16 0.00 0.00
1:14 pm 13:14 Mostly Sunny 30 -1 25 -4 80 80 W 6 9 30.33 1027 10 16 0.00 0.00
1:57 pm 13:57 Sunny 31 -0.6 24 -4.4 76 76 W 10 17 30.25 1024 10 16 0.00 0.00
2:57 pm 14:57 Mostly Sunny 32 0 25 -3.9 75 75 WSW 13 20 30.24 1024 10 16 0.00 0.00
3:15 pm 15:15 Mostly Cloudy 30 -1 25 -4 80 80 WSW 16 26 30.30 1026 10 16 0.00 0.00
3:43 pm 15:43 Partly Cloudy 30 -1 27 -3 86 86 WSW 15 24 30.30 1026 10 16 0.00 0.00
3:57 pm 15:57 Sunny 31 -0.6 26 -3.3 82 82 WSW 12 19 30.24 1024 10 16 0.00 0.00
4:57 pm 16:57 Sunny 31 -0.6 26 -3.3 82 82 W 10 17 30.25 1024 10 16 0.00 0.00
5:57 pm 17:57 Clear 28 -2.2 25 -3.9 88 88 W 8 13 30.26 1025 10 16 0.00 0.00
6:57 pm 18:57 Clear 27 -2.8 24 -4.4 89 89 WSW 8 13 30.25 1024 10 16 0.00 0.00
8:57 pm 20:57 Clear 27 -2.8 23 -5 85 85 W 10 17 30.25 1024 10 16 0.00 0.00
9:57 pm 21:57 Clear 28 -2.2 22 -5.6 78 78 W 13 20 30.26 1025 10 16 0.00 0.00
10:57 pm 22:57 Clear 26 -3.3 20 -6.7 78 78 WNW 10 17 30.26 1025 10 16 0.00 0.00
11:57 pm 23:57 Clear 25 -3.9 19 -7.2 78 78 WNW 10 17 30.27 1025 10 16 0.00 0.00

Powered by AerisWeather